(117213) = 1976 UG19 = 2004 RK214

Discovered at Socorro on 2004-09-11 by LINEAR.

Orbit

Orbit type: Main Belt

Note: WebGL enabled browser required.

epoch2024-03-31.0
epoch JD2460400.5
perihelion date2021-05-16.36487
perihelion JD2459350.86487
argument of perihelion (°)109.04802
ascending node (°)227.35675
inclination (°)12.18171
eccentricity0.3135694
perihelion distance (AU)2.1704651
Tisserand w.r.t. Jupiter3.1
ΔV w.r.t. Earth (km/sec)10.0
semimajor axis (AU)3.1619587
mean anomaly (°)183.99580
mean daily motion (°/day)0.17529500
aphelion distance (AU)4.153
period (years)5.62
P-vector [x]0.90074000
P-vector [y]-0.43335467
P-vector [z]0.02951577
Q-vector [x]0.40567823
Q-vector [y]0.86360300
Q-vector [z]0.29935770
absolute magnitude15.18
phase slope0.15
uncertainty0
referenceMPEC 2024-E179
observations used879
oppositions19
arc length (days)17280
first opposition used1976
last opposition used2024
residual rms (arc-secs)0.61
perturbers coarse indicatorM-v
perturbers precise indicator003Ek
first observation date used1976-10-24.0
last observation date used2024-02-15.0
computer nameMPCLINUX
JD of orbit computation2456819.637132
perihelion JD uncertainty (days)5.5168E-05
argument of perihelion uncertainty (°)2.1561E-05
ascending node uncertainty (°)2.0044E-05
inclination uncertainty (°)5.1412E-06
eccentricity uncertainty 4.4196E-08
perihelion distance uncertainty (AU)1.4057E-07
Minimum Orbit Intersection Distances (in AU)
for orbit epoch: 2460400.5, reference: E2024-D35
Mercury1.7985
Venus1.47859
Earth1.19832
Mars0.87616
Jupiter1.6185
Saturn5.3164
Uranus14.4078
Neptune26.369

Observations

900 total observations over interval: 1976 10 24.62306 – 2024 02 15.427576
These data are available for download (format description).

Date (UT) J2000 RA J2000 Dec Magn Location Ref
1976 10 24.62306 01 58 43.35 +17 52 34.7 18.8   381 – Tokyo-Kiso MPC 5579
1976 10 24.69597 01 58 39.82 +17 51 49.4 18.8   381 – Tokyo-Kiso MPC 5579
1993 10 11.44279 02 45 30.91 +20 43 00.3 18.6 V 691 – Steward Observatory, Kitt Peak-Spacewatch MPS 115338
1993 10 11.46813 02 45 29.95 +20 42 48.8   691 – Steward Observatory, Kitt Peak-Spacewatch MPS 115338
1993 10 11.49312 02 45 29.33 +20 42 38.6   691 – Steward Observatory, Kitt Peak-Spacewatch MPS 115338
1999 11 02.48767 05 40 00.72 +16 37 23.5 20.0 V 691 – Steward Observatory, Kitt Peak-Spacewatch MPS 115338
1999 11 02.49546 05 40 00.53 +16 37 21.1 20.1 V 691 – Steward Observatory, Kitt Peak-Spacewatch MPS 115338
1999 11 02.50369 05 40 00.33 +16 37 18.3 20.5 V 691 – Steward Observatory, Kitt Peak-Spacewatch MPS 115338
1999 12 06.30280 05 15 45.81 +13 57 04.6 18.8   704 – Lincoln Laboratory ETS, New Mexico MPS 115338
1999 12 06.31706 05 15 44.96 +13 57 01.3 18.9   704 – Lincoln Laboratory ETS, New Mexico MPS 115338
1999 12 06.33130 05 15 44.19 +13 56 58.5 18.6   704 – Lincoln Laboratory ETS, New Mexico MPS 115338
1999 12 06.34560 05 15 43.42 +13 56 54.2 19.0   704 – Lincoln Laboratory ETS, New Mexico MPS 115338
2000 01 11.17391 04 49 00.83 +12 29 32.3 19.4   704 – Lincoln Laboratory ETS, New Mexico MPS 115338
2000 01 11.18906 04 49 00.44 +12 29 31.3 19.7   704 – Lincoln Laboratory ETS, New Mexico MPS 115338
2000 01 11.20410 04 49 00.05 +12 29 31.4 19.6   704 – Lincoln Laboratory ETS, New Mexico MPS 115338
2000 01 11.21916 04 48 59.67 +12 29 30.3 20.1   704 – Lincoln Laboratory ETS, New Mexico MPS 115338
2000 11 30.435110 09 17 49.227 +01 41 44.26 21.22 V 645 – Apache Point-Sloan Digital Sky Survey MPS 115338
2000 11 30.438582 09 17 49.226 +01 41 43.48 21.79   645 – Apache Point-Sloan Digital Sky Survey MPS 115338
2001 02 20.311920 08 35 44.120 +02 16 26.82 20.89 V 645 – Apache Point-Sloan Digital Sky Survey MPS 115338
2001 02 20.315392 08 35 43.984 +02 16 27.75 21.41   645 – Apache Point-Sloan Digital Sky Survey MPS 115338
2003 05 01.32369 14 50 40.16 -17 32 31.2 19.9 V 691 – Steward Observatory, Kitt Peak-Spacewatch MPS 115338
2003 05 01.35142 14 50 38.83 -17 32 21.1 20.2 V 691 – Steward Observatory, Kitt Peak-Spacewatch MPS 115338
2003 05 01.37949 14 50 37.46 -17 32 10.3 20.4 V 691 – Steward Observatory, Kitt Peak-Spacewatch MPS 115338
2003 05 30.06205 14 29 27.94 -14 26 07.3 19.0 R 807 – Cerro Tololo Observatory, La Serena MPS 115338
2003 05 30.15518 14 29 24.48 -14 25 33.9   807 – Cerro Tololo Observatory, La Serena MPS 115338
2003 06 01.17991 14 28 14.21 -14 13 43.6 21.1 V 291 – LPL/Spacewatch II MPS 115338
2003 06 01.20552 14 28 13.31 -14 13 34.8 20.9 V 291 – LPL/Spacewatch II MPS 115338
2003 06 01.22925 14 28 12.45 -14 13 26.3 21.7 V 291 – LPL/Spacewatch II MPS 115338
2004 06 20.39168 23 25 41.49 +11 26 16.2 18.8 R 699 – Lowell Observatory-LONEOS MPS 115338
2004 06 20.41112 23 25 42.84 +11 26 30.5   699 – Lowell Observatory-LONEOS MPS 115338
2004 06 20.43055 23 25 44.23 +11 26 43.2   699 – Lowell Observatory-LONEOS MPS 115338
2004 06 20.44996 23 25 45.57 +11 26 57.5   699 – Lowell Observatory-LONEOS MPS 115338
2004 08 13.98903 00 01 12.41 +18 36 09.3 17.5 R 599 – Campo Imperatore-CINEOS MPS 115338
2004 08 14.01400 00 01 12.34 +18 36 12.4 17.6 R 599 – Campo Imperatore-CINEOS MPS 115338
2004 08 14.02616 00 01 12.31 +18 36 14.0 17.6 R 599 – Campo Imperatore-CINEOS MPS 115338
2004 08 14.03826 00 01 12.28 +18 36 15.9 17.6 R 599 – Campo Imperatore-CINEOS MPS 115338
2004 09 09.24907 23 53 12.03 +17 41 19.2 17.1   644 – Palomar Mountain/NEAT MPS 114543
2004 09 09.36500 23 53 07.97 +17 40 35.2 17.3   644 – Palomar Mountain/NEAT MPS 114543
2004 09 09.42742 23 53 05.79 +17 40 11.1 17.3   644 – Palomar Mountain/NEAT MPS 114543
2004 09 11.28566 23 52 04.44 +17 27 44.8 17.8   704 – Lincoln Laboratory ETS, New Mexico MPS 113258
2004 09 11.29727 23 52 04.07 +17 27 40.4 18.9   704 – Lincoln Laboratory ETS, New Mexico MPS 113258
2004 09 11.30906 23 52 03.67 +17 27 34.9 19.0   704 – Lincoln Laboratory ETS, New Mexico MPS 113258
2004 09 11.32145 23 52 03.14 +17 27 29.8 18.4   704 – Lincoln Laboratory ETS, New Mexico MPS 113258
2004 09 11.33342 23 52 02.71 +17 27 24.6 18.5   704 – Lincoln Laboratory ETS, New Mexico MPS 113258
2004 09 14.25341 23 50 22.62 +17 05 42.6 18.2   704 – Lincoln Laboratory ETS, New Mexico MPS 113258
2004 09 14.26470 23 50 22.19 +17 05 37.5 18.4   704 – Lincoln Laboratory ETS, New Mexico MPS 113258
2004 09 14.27598 23 50 21.75 +17 05 32.6 18.2   704 – Lincoln Laboratory ETS, New Mexico MPS 113258
2004 09 14.28726 23 50 21.38 +17 05 26.7 18.6   704 – Lincoln Laboratory ETS, New Mexico MPS 113258
2004 09 14.29855 23 50 20.95 +17 05 21.8 18.5   704 – Lincoln Laboratory ETS, New Mexico MPS 113258
2004 09 22.25304 23 45 39.98 +15 54 47.7 17.2 R 699 – Lowell Observatory-LONEOS MPS 119857
2004 09 22.27251 23 45 39.27 +15 54 36.3   699 – Lowell Observatory-LONEOS MPS 119857
2004 09 22.29198 23 45 38.52 +15 54 24.7   699 – Lowell Observatory-LONEOS MPS 119857
2004 09 22.31145 23 45 37.79 +15 54 13.4   699 – Lowell Observatory-LONEOS MPS 119857
2004 09 24.23528 23 44 31.29 +15 35 01.7 17.9   704 – Lincoln Laboratory ETS, New Mexico MPS 115338
2004 09 24.24875 23 44 30.77 +15 34 53.6 17.8   704 – Lincoln Laboratory ETS, New Mexico MPS 115338
2004 09 24.26195 23 44 30.29 +15 34 45.9 18.2   704 – Lincoln Laboratory ETS, New Mexico MPS 115338
2004 09 24.27521 23 44 29.81 +15 34 37.4 17.8   704 – Lincoln Laboratory ETS, New Mexico MPS 115338
2004 09 24.28875 23 44 29.33 +15 34 29.1 18.3   704 – Lincoln Laboratory ETS, New Mexico MPS 115338
2004 10 06.36803 23 38 23.09 +13 22 24.9 17.5   644 – Palomar Mountain/NEAT MPS 115827
2004 10 06.38899 23 38 22.53 +13 22 10.6 17.6   644 – Palomar Mountain/NEAT MPS 115827
2004 10 06.41146 23 38 21.92 +13 21 55.1 17.6   644 – Palomar Mountain/NEAT MPS 115827
2004 10 10.19901 23 36 56.26 +12 38 38.9 18.0   704 – Lincoln Laboratory ETS, New Mexico MPS 116712
2004 10 10.20993 23 36 56.03 +12 38 31.3 18.2   704 – Lincoln Laboratory ETS, New Mexico MPS 116712
2004 10 10.22086 23 36 55.78 +12 38 23.9 18.2   704 – Lincoln Laboratory ETS, New Mexico MPS 116712
2004 10 10.23177 23 36 55.51 +12 38 16.2 18.4   704 – Lincoln Laboratory ETS, New Mexico MPS 116712
2004 10 10.24269 23 36 55.26 +12 38 08.8 18.8   704 – Lincoln Laboratory ETS, New Mexico MPS 116712
2004 10 13.18267 23 36 01.22 +12 04 42.6 17.6 R 699 – Lowell Observatory-LONEOS MPS 116712
2004 10 13.19240 23 36 00.98 +12 04 36.1   699 – Lowell Observatory-LONEOS MPS 116712
2004 10 13.20215 23 36 00.83 +12 04 29.3   699 – Lowell Observatory-LONEOS MPS 116712
2004 10 13.21187 23 36 00.63 +12 04 23.1   699 – Lowell Observatory-LONEOS MPS 116712
2004 10 15.20105 23 35 30.69 +11 42 02.4 18.1   704 – Lincoln Laboratory ETS, New Mexico MPS 117659
2004 10 15.21214 23 35 30.50 +11 41 55.3 18.4   704 – Lincoln Laboratory ETS, New Mexico MPS 117659
2004 10 15.22323 23 35 30.31 +11 41 47.5 18.3   704 – Lincoln Laboratory ETS, New Mexico MPS 117659
2004 10 15.23430 23 35 30.17 +11 41 39.9 18.9   704 – Lincoln Laboratory ETS, New Mexico MPS 117659
2004 10 15.24538 23 35 29.97 +11 41 32.5 18.4   704 – Lincoln Laboratory ETS, New Mexico MPS 117659
2004 10 15.29883 23 35 29.19 +11 40 56.1 17.9 R 699 – Lowell Observatory-LONEOS MPS 117659
2004 10 15.31585 23 35 28.92 +11 40 44.8   699 – Lowell Observatory-LONEOS MPS 117659
2004 10 15.33286 23 35 28.63 +11 40 32.9   699 – Lowell Observatory-LONEOS MPS 117659
2004 10 15.34989 23 35 28.42 +11 40 21.6   699 – Lowell Observatory-LONEOS MPS 117659
2004 11 06.18711 23 36 43.48 +08 11 04.4 18.9   704 – Lincoln Laboratory ETS, New Mexico MPS 119292
2004 11 06.19956 23 36 43.75 +08 10 59.3 19.0   704 – Lincoln Laboratory ETS, New Mexico MPS 119292
2004 11 06.21167 23 36 43.91 +08 10 52.1 19.2   704 – Lincoln Laboratory ETS, New Mexico MPS 119292
2004 12 09.12689 00 00 06.16 +06 03 10.5 19.6 R 704 – Lincoln Laboratory ETS, New Mexico MPS 121175
2004 12 09.13953 00 00 06.94 +06 03 09.9 20.0 R 704 – Lincoln Laboratory ETS, New Mexico MPS 121175
2004 12 09.15295 00 00 07.80 +06 03 09.3 19.9 R 704 – Lincoln Laboratory ETS, New Mexico MPS 121175
